Change the Weather History Date:

Thursday, April 11, 2013

  Actual Average Record
Temperature  
Mean Temperature 29 °F -  
Max Temperature 32 °F 47 °F 79 °F (1968)
Min Temperature 26 °F 25 °F 15 °F (1975)
Degree Days  
Heating Degree Days 36    
Moisture  
Dew Point 18 °F    
Average Humidity 63    
Maximum Humidity 81    
Minimum Humidity 44    
Precipitation  
Precipitation 0.03 in - - ()
Sea Level Pressure  
Sea Level Pressure 29.97 in    
Wind  
Wind Speed 14 mph (ENE)    
Max Wind Speed 20 mph    
Max Gust Speed 30 mph    
Visibility 7 miles    
Events Snow    
Averages and records for this station are not official NWS values.
T = Trace of Precipitation, MM = Missing Value Source: NWS Daily Summary

Daily Weather History Graph

Daily Weather History Graph

Search for Another Location

Airport or City:

Trip Planner

Search our weather history database for the weather conditions in past years. The results will help you decide how hot, cold, wet, or windy it might be!

Date:

Astronomy

Apr. 11, 2013 Rise Set
Actual Time 6:30 AM CDT 7:55 PM CDT
Civil Twilight 5:58 AM CDT 8:27 PM CDT
Nautical Twilight 5:19 AM CDT 9:06 PM CDT
Astronomical Twilight 4:38 AM CDT 9:47 PM CDT
Moon 6:56 AM CDT (4/11) 9:38 PM CDT (4/11)
Length of Visible Light 14h 29m
Length of Day
13h 25m
New Moon, 2% of the Moon is Illuminated
Apr 11
New Moon
Apr 18
First Quarter
Apr 25
Full
May 2
Last Quarter
May 9
New

Hourly Weather History & Observations

Time (CDT) Temp. Windchill Dew Point Humidity Pressure Visibility Wind Dir Wind Speed Gust Speed Precip Events Conditions
12:53 AM 32.0 °F 22.1 °F 12.0 °F 44% 30.12 in 10.0 mi East 13.8 mph - N/A   Partly Cloudy
1:53 AM 30.9 °F 22.8 °F 14.0 °F 50% 30.10 in 10.0 mi East 9.2 mph 18.4 mph N/A   Clear
2:53 AM 30.9 °F 20.7 °F 12.9 °F 47% 30.08 in 10.0 mi East 13.8 mph 20.7 mph N/A   Mostly Cloudy
3:53 AM 30.9 °F 20.2 °F 14.0 °F 50% 30.07 in 10.0 mi East 15.0 mph 21.9 mph N/A   Partly Cloudy
4:53 AM 30.0 °F 19.5 °F 14.0 °F 51% 30.06 in 10.0 mi East 13.8 mph 19.6 mph N/A   Partly Cloudy
5:53 AM 30.0 °F 20.5 °F 16.0 °F 56% 30.06 in 10.0 mi East 11.5 mph - N/A   Overcast
6:53 AM 28.9 °F 18.2 °F 18.0 °F 64% 30.03 in 10.0 mi ENE 13.8 mph 20.7 mph N/A   Overcast
7:53 AM 28.9 °F 16.9 °F 16.0 °F 58% 30.01 in 10.0 mi East 17.3 mph 29.9 mph N/A   Mostly Cloudy
8:53 AM 28.9 °F 16.9 °F 16.0 °F 58% 30.00 in 10.0 mi ENE 17.3 mph 24.2 mph N/A   Overcast
9:53 AM 30.0 °F 17.9 °F 17.1 °F 59% 30.02 in 10.0 mi East 18.4 mph 27.6 mph N/A   Mostly Cloudy
10:53 AM 30.9 °F 19.8 °F 15.1 °F 52% 30.01 in 10.0 mi East 16.1 mph 26.5 mph N/A   Mostly Cloudy
12:00 PM 28.4 °F 18.0 °F 19.4 °F 69% 29.95 in 0.8 mi East 12.7 mph 26.5 mph 0.00 in Snow Light Snow
12:12 PM 28.4 °F 17.5 °F 19.4 °F 69% 29.95 in 1.8 mi East 13.8 mph 20.7 mph 0.00 in Snow Light Snow
12:29 PM 26.6 °F 14.3 °F 21.2 °F 80% 29.95 in 0.2 mi East 16.1 mph 26.5 mph 0.01 in Snow Heavy Snow
12:46 PM 26.6 °F 16.2 °F 21.2 °F 80% 29.94 in 0.2 mi ENE 11.5 mph - 0.03 in Snow Heavy Snow
12:53 PM 27.0 °F 15.6 °F 21.9 °F 81% 30.01 in 0.2 mi East 13.8 mph - 0.03 in Snow Heavy Snow
1:26 PM 26.6 °F 15.7 °F 21.2 °F 80% 29.93 in 0.5 mi ENE 12.7 mph - 0.03 in Snow Snow
1:31 PM 26.6 °F 15.7 °F 21.2 °F 80% 29.93 in 1.0 mi NE 12.7 mph - 0.03 in Snow Light Snow
1:37 PM 26.6 °F 15.2 °F 21.2 °F 80% 29.93 in 3.0 mi ENE 13.8 mph 21.9 mph 0.03 in Snow Light Snow
1:45 PM 28.4 °F 15.8 °F 21.2 °F 74% 29.92 in 1.8 mi ENE 18.4 mph 24.2 mph 0.03 in Snow Light Snow
2:01 PM 28.4 °F 16.6 °F 21.2 °F 74% 29.93 in 2.5 mi ENE 16.1 mph 27.6 mph 0.00 in Snow Light Snow
2:09 PM 28.4 °F 16.2 °F 19.4 °F 69% 29.93 in 4.0 mi East 17.3 mph 27.6 mph 0.00 in Snow Light Snow
2:26 PM 28.4 °F 16.6 °F 19.4 °F 69% 29.92 in 9.0 mi ENE 16.1 mph 25.3 mph 0.00 in   Overcast
2:53 PM 28.9 °F 16.5 °F 19.0 °F 67% 29.97 in 6.0 mi ENE 18.4 mph 28.8 mph 0.00 in Snow Light Snow
3:53 PM 28.9 °F 16.9 °F 19.0 °F 67% 29.94 in 10.0 mi ENE 17.3 mph 28.8 mph 0.00 in   Overcast
4:53 PM 30.9 °F 20.7 °F 18.0 °F 59% 29.93 in 10.0 mi ENE 13.8 mph 26.5 mph 0.00 in   Overcast
5:53 PM 32.0 °F 20.1 °F 18.0 °F 56% 29.93 in 10.0 mi ENE 19.6 mph 25.3 mph N/A   Overcast
6:53 PM 32.0 °F 23.6 °F 16.0 °F 52% 29.93 in 10.0 mi East 10.4 mph 19.6 mph N/A   Overcast
7:53 PM 30.9 °F 19.1 °F 16.0 °F 54% 29.93 in 10.0 mi East 18.4 mph 29.9 mph N/A   Overcast
8:53 PM 30.9 °F 19.4 °F 17.1 °F 57% 29.91 in 10.0 mi East 17.3 mph 26.5 mph N/A   Overcast
9:53 PM 30.9 °F 20.7 °F 17.1 °F 57% 29.92 in 10.0 mi East 13.8 mph 21.9 mph N/A   Overcast
10:53 PM 30.9 °F 22.2 °F 17.1 °F 57% 29.91 in 10.0 mi East 10.4 mph 19.6 mph 0.00 in   Overcast
11:53 PM 28.9 °F 21.1 °F 19.9 °F 69% 29.90 in 4.0 mi NE 8.1 mph - 0.00 in Snow Light Snow